Location: Franzen
(48.6167°N, 15.3833°E)
Time: 02:51:56
(UTC+00:00)

Transit 2A - Pass Details

Date: 03 August 2021
Orbit: 594 x 964 km, 66.7° (Epoch: 27 September)

Event Time Altitude Azimuth Distance (km) Brightness Sun altitude
Rises 11:03:20 0° 327° (NNW) 3,137 8.9 58.8°
Reaches altitude 10° 11:06:14 10° 344° (NNW) 2,283 8.3 58.8°
Maximum altitude 11:10:06 20° 32° (NNE) 1,767 7.9 58.7°
Drops below altitude 10° 11:14:13 10° 79° (E) 2,464 8.7 58.7°
Sets 11:17:28 0° 95° (E) 3,467 9.4 58.6°
